Terminal Aerodrome Forecast
Issued by NWS

Home | Current Version | Previous Version | Text Only | Print | Product List | Glossary On
Versions: 1 2 3 4 5 6 7 8 9 10 11 12 13 14 15 16 17 18 19 20 21 22 23 24 25 26 27 28 29 30 31 32 33 34 35 36 37
000
FTUS45 KGGW 271100
TAFGDV
TAF
KGDV 271120Z 2712/2812 VRB06KT P6SM OVC035
     FM271500 12008KT 5SM -FZRASN OVC024
     FM271800 16011KT P6SM VCSH BKN020
     FM280000 24008KT P6SM BKN080
      AMD LTD TO CLD VIS AND WIND=

USA.gov is the U.S. government's official web portal to all federal, state and local government web resources and services.